| time (UTC) | temp F | wind direction | speed MPH | gust MPH | rain 1hr in | rain 24hr in | rain mn in | humidity % | barometer mb |
| 20260901031842 | 76 | 79 | 0.0 | 0.0 | 0.00 | 0.29 | 0.29 | 92 | 1014.7 |
| 20260901031338 | 76 | 83 | 0.0 | 0.0 | 0.00 | 0.29 | 0.29 | 92 | 1014.6 |
| 20260901030837 | 76 | 78 | 0.0 | 0.0 | 0.00 | 0.29 | 0.29 | 92 | 1014.6 |
| 20260901030333 | 76 | 83 | 0.0 | 0.0 | 0.00 | 0.29 | 0.29 | 92 | 1014.5 |
| 20260901025832 | 76 | 83 | 0.0 | 0.0 | 0.00 | 0.29 | 0.29 | 91 | 1014.8 |
| 20260901025326 | 77 | 84 | 0.0 | 0.0 | 0.00 | 0.29 | 0.29 | 91 | 1014.6 |
| 20260901024816 | 77 | 97 | 0.0 | 1.0 | 0.00 | 0.29 | 0.29 | 91 | 1014.8 |
| 20260901024315 | 77 | 147 | 1.0 | 1.0 | 0.00 | 0.29 | 0.29 | 91 | 1014.9 |
| 20260901023813 | 77 | 90 | 0.0 | 0.0 | 0.00 | 0.29 | 0.29 | 91 | 1014.9 |
| 20260901023308 | 77 | 147 | 1.0 | 1.0 | 0.00 | 0.29 | 0.29 | 91 | 1014.7 |
| 20260901022804 | 77 | 88 | 0.0 | 0.0 | 0.00 | 0.29 | 0.29 | 91 | 1014.7 |
| 20260901022300 | 77 | 66 | 0.0 | 1.0 | 0.00 | 0.29 | 0.29 | 91 | 1014.9 |
| 20260901021754 | 77 | 74 | 0.0 | 1.0 | 0.00 | 0.29 | 0.29 | 90 | 1014.8 |
| 20260901021250 | 77 | 96 | 0.0 | 0.0 | 0.00 | 0.29 | 0.29 | 90 | 1014.7 |
| 20260901020745 | 77 | 137 | 0.0 | 1.0 | 0.00 | 0.29 | 0.29 | 90 | 1014.4 |
| 20260901020240 | 77 | 77 | 0.0 | 0.0 | 0.00 | 0.29 | 0.29 | 90 | 1014.7 |
| 20260901015735 | 78 | 99 | 1.0 | 1.0 | 0.00 | 0.29 | 0.29 | 90 | 1014.6 |
| 20260901015231 | 78 | 84 | 0.0 | 0.0 | 0.00 | 0.29 | 0.29 | 90 | 1014.1 |
| 20260901014730 | 78 | 83 | 0.0 | 0.0 | 0.00 | 0.29 | 0.29 | 89 | 1014.2 |
| 20260901014226 | 78 | 92 | 0.0 | 0.0 | 0.00 | 0.29 | 0.29 | 89 | 1014.3 |
| 20260901013722 | 78 | 125 | 1.0 | 1.0 | 0.00 | 0.29 | 0.29 | 89 | 1014.2 |
| 20260901013217 | 78 | 94 | 0.0 | 0.0 | 0.00 | 0.29 | 0.29 | 88 | 1014.3 |
| 20260901012713 | 78 | 82 | 0.0 | 0.0 | 0.00 | 0.29 | 0.29 | 88 | 1014.4 |
| 20260901012213 | 79 | 78 | 0.0 | 0.0 | 0.00 | 0.29 | 0.29 | 88 | 1014.2 |
| 20260901011708 | 79 | 78 | 1.0 | 1.0 | 0.00 | 0.29 | 0.29 | 88 | 1014.3 |
| 20260901011208 | 79 | 170 | 1.0 | 1.0 | 0.00 | 0.29 | 0.29 | 87 | 1013.9 |
| 20260901010702 | 80 | 81 | 0.0 | 0.0 | 0.00 | 0.29 | 0.29 | 86 | 1013.9 |
| 20260901010157 | 80 | 90 | 0.0 | 0.0 | 0.00 | 0.29 | 0.29 | 86 | 1014.0 |
| 20260901005656 | 80 | 102 | 1.0 | 1.0 | 0.00 | 0.29 | 0.29 | 86 | 1013.9 |
| 20260901005151 | 80 | 102 | 2.0 | 2.0 | 0.00 | 0.29 | 0.29 | 85 | 1013.9 |
| 20260901004651 | 80 | 84 | 0.0 | 1.0 | 0.00 | 0.29 | 0.29 | 85 | 1013.8 |
| 20260901004145 | 80 | 82 | 1.0 | 2.0 | 0.00 | 0.29 | 0.29 | 84 | 1013.6 |
| 20260901003635 | 80 | 80 | 0.0 | 0.0 | 0.00 | 0.29 | 0.29 | 84 | 1013.8 |
| 20260901003134 | 81 | 71 | 1.0 | 1.0 | 0.00 | 0.29 | 0.29 | 84 | 1013.9 |
| 20260901002634 | 81 | 28 | 1.0 | 1.0 | 0.00 | 0.29 | 0.29 | 83 | 1013.9 |
| 20260901002128 | 81 | 79 | 1.0 | 1.0 | 0.00 | 0.29 | 0.29 | 83 | 1013.7 |
| 20260901001624 | 81 | 258 | 1.0 | 2.0 | 0.00 | 0.29 | 0.29 | 82 | 1013.7 |
| 20260901001119 | 81 | 83 | 0.0 | 1.0 | 0.00 | 0.29 | 0.29 | 82 | 1013.9 |
| 20260901000614 | 81 | 92 | 1.0 | 1.0 | 0.00 | 0.29 | 0.29 | 82 | 1013.7 |
| 20260901000109 | 81 | 43 | 2.0 | 3.0 | 0.00 | 0.29 | 0.29 | 82 | 1013.6 |
| 20260831235603 | 81 | 119 | 1.0 | 1.0 | 0.00 | 0.29 | 0.29 | 81 | 1013.4 |
| 20260831235059 | 81 | 100 | 2.0 | 2.0 | 0.00 | 0.29 | 0.29 | 81 | 1013.7 |
| 20260831234552 | 82 | 104 | 0.0 | 0.0 | 0.00 | 0.29 | 0.29 | 81 | 1013.7 |
| 20260831234048 | 81 | 122 | 0.0 | 1.0 | 0.00 | 0.29 | 0.29 | 81 | 1013.5 |
| 20260831233543 | 81 | 184 | 2.0 | 3.0 | 0.00 | 0.29 | 0.29 | 80 | 1013.5 |
| 20260831233039 | 82 | 167 | 3.0 | 5.0 | 0.00 | 0.29 | 0.29 | 81 | 1013.5 |
| 20260831232534 | 82 | 125 | 3.0 | 3.0 | 0.00 | 0.29 | 0.29 | 80 | 1013.4 |
| 20260831232030 | 82 | 116 | 1.0 | 1.0 | 0.00 | 0.29 | 0.29 | 80 | 1013.6 |
| 20260831231526 | 82 | 109 | 1.0 | 1.0 | 0.00 | 0.29 | 0.29 | 80 | 1013.6 |
| 20260831231021 | 82 | 116 | 2.0 | 2.0 | 0.00 | 0.29 | 0.29 | 80 | 1013.5 |
| 20260831230516 | 82 | 155 | 3.0 | 5.0 | 0.00 | 0.29 | 0.29 | 79 | 1013.5 |
| 20260831230011 | 82 | 178 | 1.0 | 1.0 | 0.00 | 0.29 | 0.29 | 79 | 1013.5 |
| 20260831225507 | 82 | 180 | 1.0 | 2.0 | 0.00 | 0.29 | 0.29 | 79 | 1013.3 |
| 20260831225006 | 82 | 233 | 3.0 | 3.0 | 0.00 | 0.29 | 0.29 | 79 | 1013.5 |
| 20260831224501 | 82 | 229 | 3.0 | 5.0 | 0.00 | 0.29 | 0.29 | 78 | 1013.2 |
| 20260831223956 | 82 | 63 | 2.0 | 2.0 | 0.00 | 0.29 | 0.29 | 79 | 1013.3 |
| 20260831223452 | 82 | 233 | 2.0 | 2.0 | 0.00 | 0.29 | 0.29 | 79 | 1013.1 |
| 20260831222948 | 83 | 276 | 3.0 | 3.0 | 0.00 | 0.29 | 0.29 | 78 | 1013.1 |
| 20260831222444 | 84 | 109 | 3.0 | 3.0 | 0.00 | 0.29 | 0.29 | 77 | 1013.2 |
| 20260831221938 | 83 | 233 | 3.0 | 5.0 | 0.00 | 0.29 | 0.29 | 78 | 1013.1 |
| 20260831221434 | 83 | 101 | 3.0 | 5.0 | 0.00 | 0.29 | 0.29 | 77 | 1013.4 |
| 20260831220929 | 84 | 181 | 2.0 | 3.0 | 0.00 | 0.29 | 0.29 | 77 | 1013.6 |
| 20260831220424 | 84 | 0 | 4.0 | 5.0 | 0.00 | 0.29 | 0.29 | 77 | 1013.3 |
| 20260831215919 | 84 | 135 | 1.0 | 2.0 | 0.00 | 0.29 | 0.29 | 77 | 1013.4 |
| 20260831215415 | 84 | 244 | 3.0 | 5.0 | 0.00 | 0.29 | 0.29 | 76 | 1013.3 |
| 20260831214911 | 83 | 222 | 2.0 | 5.0 | 0.00 | 0.29 | 0.29 | 77 | 1013.4 |
| 20260831214409 | 84 | 223 | 2.0 | 2.0 | 0.00 | 0.29 | 0.29 | 77 | 1013.4 |
| 20260831213904 | 84 | 88 | 1.0 | 1.0 | 0.00 | 0.29 | 0.29 | 76 | 1013.4 |
| 20260831213401 | 84 | 123 | 2.0 | 2.0 | 0.00 | 0.29 | 0.29 | 76 | 1013.5 |
| 20260831212855 | 84 | 62 | 0.0 | 1.0 | 0.00 | 0.29 | 0.29 | 76 | 1013.5 |
| 20260831212352 | 83 | 88 | 0.0 | 1.0 | 0.00 | 0.29 | 0.29 | 77 | 1013.5 |
| 20260831211850 | 83 | 180 | 3.0 | 3.0 | 0.00 | 0.29 | 0.29 | 77 | 1013.4 |
| 20260831211345 | 83 | 215 | 2.0 | 3.0 | 0.00 | 0.29 | 0.29 | 77 | 1013.5 |
| 20260831210845 | 83 | 83 | 0.0 | 1.0 | 0.00 | 0.29 | 0.29 | 77 | 1013.3 |
| 20260831210340 | 82 | 154 | 2.0 | 2.0 | 0.00 | 0.29 | 0.29 | 78 | 1013.0 |
| 20260831205836 | 82 | 134 | 3.0 | 5.0 | 0.00 | 0.29 | 0.29 | 78 | 1012.8 |
| 20260831205331 | 82 | 133 | 0.0 | 1.0 | 0.00 | 0.29 | 0.29 | 78 | 1012.8 |
| 20260831204826 | 82 | 93 | 0.0 | 1.0 | 0.00 | 0.29 | 0.29 | 77 | 1012.6 |
| 20260831204325 | 82 | 343 | 0.0 | 1.0 | 0.00 | 0.29 | 0.29 | 78 | 1012.9 |
| 20260831203824 | 82 | 53 | 2.0 | 2.0 | 0.00 | 0.29 | 0.29 | 77 | 1012.8 |
| 20260831203319 | 82 | 150 | 1.0 | 2.0 | 0.00 | 0.29 | 0.29 | 78 | 1013.0 |
| 20260831202817 | 82 | 183 | 1.0 | 3.0 | 0.00 | 0.29 | 0.29 | 77 | 1013.1 |
| 20260831202312 | 82 | 131 | 3.0 | 3.0 | 0.00 | 0.29 | 0.29 | 77 | 1013.4 |
| 20260831201807 | 82 | 116 | 1.0 | 1.0 | 0.00 | 0.29 | 0.29 | 76 | 1013.3 |
| 20260831201305 | 82 | 286 | 3.0 | 3.0 | 0.00 | 0.29 | 0.29 | 75 | 1013.3 |
| 20260831200801 | 83 | 137 | 2.0 | 2.0 | 0.00 | 0.29 | 0.29 | 74 | 1013.2 |
| 20260831200256 | 83 | 119 | 1.0 | 1.0 | 0.00 | 0.29 | 0.29 | 73 | 1013.1 |
| 20260831195751 | 84 | 85 | 2.0 | 2.0 | 0.00 | 0.29 | 0.29 | 73 | 1013.1 |
| 20260831195247 | 84 | 195 | 1.0 | 2.0 | 0.00 | 0.29 | 0.29 | 73 | 1013.2 |
| 20260831194742 | 84 | 229 | 3.0 | 3.0 | 0.00 | 0.29 | 0.29 | 72 | 1013.1 |
| 20260831194238 | 85 | 256 | 1.0 | 1.0 | 0.00 | 0.29 | 0.29 | 70 | 1013.1 |
| 20260831193731 | 86 | 249 | 2.0 | 2.0 | 0.00 | 0.29 | 0.29 | 70 | 1013.2 |
| 20260831193227 | 86 | 220 | 4.0 | 6.0 | 0.00 | 0.29 | 0.29 | 69 | 1013.2 |
| 20260831192722 | 86 | 340 | 2.0 | 2.0 | 0.00 | 0.29 | 0.29 | 69 | 1013.4 |
| 20260831192217 | 86 | 334 | 4.0 | 6.0 | 0.00 | 0.29 | 0.29 | 68 | 1013.1 |
| 20260831191713 | 87 | 285 | 5.0 | 9.0 | 0.00 | 0.29 | 0.29 | 67 | 1013.3 |
| 20260831191209 | 87 | 98 | 3.0 | 5.0 | 0.00 | 0.29 | 0.29 | 69 | 1013.2 |
| 20260831190704 | 87 | 281 | 4.0 | 6.0 | 0.00 | 0.29 | 0.29 | 69 | 1013.3 |
| 20260831190203 | 86 | 252 | 2.0 | 3.0 | 0.00 | 0.29 | 0.29 | 71 | 1013.2 |
| 20260831185658 | 86 | 210 | 5.0 | 8.0 | 0.00 | 0.29 | 0.29 | 70 | 1013.1 |
| 20260831185153 | 85 | 31 | 4.0 | 6.0 | 0.00 | 0.29 | 0.29 | 70 | 1013.1 |
| 20260831184648 | 86 | 227 | 3.0 | 6.0 | 0.00 | 0.29 | 0.29 | 70 | 1013.1 |
| 20260831184144 | 86 | 86 | 1.0 | 2.0 | 0.00 | 0.29 | 0.29 | 70 | 1013.2 |
| 20260831183643 | 86 | 272 | 3.0 | 5.0 | 0.00 | 0.29 | 0.29 | 70 | 1013.2 |
| 20260831183142 | 85 | 177 | 5.0 | 7.0 | 0.00 | 0.29 | 0.29 | 70 | 1013.1 |
| 20260831182641 | 84 | 241 | 3.0 | 5.0 | 0.00 | 0.29 | 0.29 | 71 | 1013.5 |
| 20260831182138 | 84 | 136 | 3.0 | 5.0 | 0.00 | 0.29 | 0.29 | 72 | 1013.5 |
| 20260831181638 | 83 | 214 | 1.0 | 1.0 | 0.00 | 0.29 | 0.29 | 73 | 1013.8 |
| 20260831181138 | 84 | 166 | 4.0 | 5.0 | 0.00 | 0.29 | 0.29 | 72 | 1013.5 |
| 20260831180633 | 85 | 243 | 3.0 | 5.0 | 0.00 | 0.29 | 0.29 | 70 | 1013.7 |
| 20260831180128 | 84 | 96 | 1.0 | 1.0 | 0.00 | 0.29 | 0.29 | 70 | 1013.6 |
| 20260831175622 | 84 | 307 | 2.0 | 5.0 | 0.00 | 0.29 | 0.29 | 71 | 1013.4 |
| 20260831175120 | 83 | 236 | 3.0 | 5.0 | 0.00 | 0.29 | 0.29 | 71 | 1013.5 |
| 20260831174619 | 83 | 110 | 2.0 | 3.0 | 0.00 | 0.29 | 0.29 | 71 | 1013.6 |
| 20260831174114 | 84 | 188 | 3.0 | 6.0 | 0.00 | 0.29 | 0.29 | 70 | 1013.6 |
| 20260831173613 | 84 | 204 | 2.0 | 3.0 | 0.00 | 0.29 | 0.29 | 70 | 1013.7 |
| 20260831173109 | 83 | 149 | 1.0 | 2.0 | 0.00 | 0.29 | 0.29 | 71 | 1014.0 |
| 20260831172609 | 83 | 110 | 3.0 | 3.0 | 0.00 | 0.29 | 0.29 | 72 | 1013.5 |
| 20260831172104 | 84 | 231 | 2.0 | 2.0 | 0.00 | 0.29 | 0.29 | 71 | 1013.6 |
| 20260831171559 | 84 | 266 | 3.0 | 3.0 | 0.00 | 0.29 | 0.29 | 71 | 1013.9 |
| 20260831171056 | 84 | 161 | 2.0 | 3.0 | 0.00 | 0.29 | 0.29 | 71 | 1014.0 |
| 20260831170552 | 84 | 257 | 4.0 | 7.0 | 0.00 | 0.29 | 0.29 | 71 | 1013.9 |
| 20260831170050 | 84 | 150 | 3.0 | 5.0 | 0.00 | 0.29 | 0.29 | 72 | 1013.8 |
| 20260831165549 | 83 | 163 | 3.0 | 6.0 | 0.00 | 0.29 | 0.29 | 72 | 1013.8 |
| 20260831165046 | 83 | 157 | 3.0 | 5.0 | 0.00 | 0.29 | 0.29 | 72 | 1013.9 |
| 20260831164542 | 82 | 94 | 1.0 | 1.0 | 0.00 | 0.29 | 0.29 | 74 | 1014.0 |
| 20260831164037 | 82 | 109 | 3.0 | 5.0 | 0.00 | 0.29 | 0.29 | 74 | 1013.9 |
| 20260831163532 | 82 | 123 | 3.0 | 5.0 | 0.00 | 0.29 | 0.29 | 72 | 1013.9 |
| 20260831163028 | 82 | 151 | 3.0 | 5.0 | 0.00 | 0.29 | 0.29 | 73 | 1014.1 |
| 20260831162526 | 81 | 86 | 1.0 | 1.0 | 0.00 | 0.29 | 0.29 | 76 | 1013.9 |
| 20260831162025 | 80 | 99 | 5.0 | 7.0 | 0.00 | 0.29 | 0.29 | 75 | 1013.8 |
| 20260831161521 | 80 | 200 | 3.0 | 3.0 | 0.00 | 0.29 | 0.29 | 76 | 1013.9 |
| 20260831161017 | 80 | 97 | 3.0 | 3.0 | 0.00 | 0.29 | 0.29 | 77 | 1014.1 |
| 20260831160516 | 79 | 244 | 5.0 | 7.0 | 0.00 | 0.29 | 0.29 | 77 | 1014.2 |
| 20260831160012 | 79 | 119 | 3.0 | 3.0 | 0.00 | 0.29 | 0.29 | 77 | 1014.2 |
| 20260831155506 | 79 | 246 | 4.0 | 7.0 | 0.00 | 0.29 | 0.29 | 77 | 1014.3 |
| 20260831155001 | 80 | 244 | 3.0 | 5.0 | 0.00 | 0.29 | 0.29 | 76 | 1014.1 |
| 20260831154458 | 80 | 145 | 3.0 | 5.0 | 0.00 | 0.29 | 0.29 | 75 | 1014.3 |
| 20260831153956 | 79 | 243 | 2.0 | 2.0 | 0.00 | 0.29 | 0.29 | 78 | 1014.2 |
| 20260831153452 | 79 | 105 | 3.0 | 5.0 | 0.00 | 0.29 | 0.29 | 77 | 1014.3 |
| 20260831152948 | 78 | 108 | 1.0 | 2.0 | 0.00 | 0.29 | 0.29 | 80 | 1014.1 |
| 20260831152443 | 79 | 84 | 1.0 | 1.0 | 0.00 | 0.29 | 0.29 | 79 | 1014.5 |
| 20260831151939 | 78 | 144 | 3.0 | 3.0 | 0.00 | 0.29 | 0.29 | 79 | 1014.4 |
| 20260831151438 | 77 | 161 | 2.0 | 7.0 | 0.00 | 0.29 | 0.29 | 83 | 1014.5 |
| 20260831150933 | 76 | 259 | 2.0 | 3.0 | 0.00 | 0.29 | 0.29 | 82 | 1014.3 |
| 20260831150429 | 76 | 283 | 2.0 | 2.0 | 0.00 | 0.29 | 0.29 | 83 | 1014.4 |
| 20260831145928 | 76 | 84 | 1.0 | 1.0 | 0.00 | 0.29 | 0.29 | 83 | 1014.4 |
| 20260831145424 | 75 | 163 | 3.0 | 3.0 | 0.00 | 0.29 | 0.29 | 84 | 1014.4 |
| 20260831144919 | 75 | 161 | 2.0 | 5.0 | 0.00 | 0.29 | 0.29 | 85 | 1014.5 |
| 20260831144410 | 75 | 221 | 1.0 | 2.0 | 0.00 | 0.29 | 0.29 | 86 | 1014.5 |
| 20260831143910 | 75 | 51 | 2.0 | 2.0 | 0.00 | 0.29 | 0.29 | 84 | 1014.4 |
| 20260831143405 | 75 | 83 | 1.0 | 2.0 | 0.00 | 0.29 | 0.29 | 86 | 1014.5 |
| 20260831142900 | 74 | 76 | 1.0 | 1.0 | 0.00 | 0.29 | 0.29 | 86 | 1014.6 |
| 20260831142355 | 74 | 174 | 4.0 | 7.0 | 0.00 | 0.29 | 0.29 | 86 | 1014.1 |
| 20260831141850 | 74 | 58 | 0.0 | 1.0 | 0.00 | 0.29 | 0.29 | 86 | 1014.2 |
| 20260831141344 | 73 | 148 | 3.0 | 3.0 | 0.00 | 0.29 | 0.29 | 86 | 1014.3 |
| 20260831140839 | 73 | 67 | 2.0 | 2.0 | 0.00 | 0.29 | 0.29 | 87 | 1014.4 |
| 20260831140334 | 73 | 150 | 2.0 | 3.0 | 0.00 | 0.29 | 0.29 | 86 | 1014.1 |
| 20260831135832 | 73 | 173 | 5.0 | 8.0 | 0.00 | 0.29 | 0.29 | 87 | 1014.4 |
| 20260831135328 | 72 | 172 | 3.0 | 5.0 | 0.00 | 0.29 | 0.29 | 87 | 1014.5 |
| 20260831134823 | 72 | 195 | 5.0 | 7.0 | 0.00 | 0.29 | 0.29 | 87 | 1014.2 |
| 20260831134320 | 72 | 140 | 3.0 | 3.0 | 0.00 | 0.29 | 0.29 | 88 | 1014.4 |
| 20260831133819 | 72 | 148 | 0.0 | 1.0 | 0.00 | 0.29 | 0.29 | 89 | 1014.5 |
| 20260831133318 | 72 | 80 | 3.0 | 3.0 | 0.00 | 0.29 | 0.29 | 88 | 1014.2 |
| 20260831132814 | 71 | 96 | 1.0 | 1.0 | 0.00 | 0.29 | 0.29 | 89 | 1014.2 |
| 20260831132309 | 72 | 166 | 3.0 | 6.0 | 0.00 | 0.29 | 0.29 | 89 | 1014.3 |
| 20260831131803 | 71 | 75 | 1.0 | 2.0 | 0.00 | 0.29 | 0.29 | 89 | 1014.4 |
| 20260831131259 | 71 | 105 | 2.0 | 5.0 | 0.00 | 0.29 | 0.29 | 90 | 1014.0 |
| 20260831130754 | 71 | 92 | 3.0 | 3.0 | 0.00 | 0.29 | 0.29 | 90 | 1014.1 |
| 20260831130249 | 71 | 132 | 1.0 | 2.0 | 0.00 | 0.29 | 0.29 | 90 | 1014.2 |
| 20260831125748 | 71 | 102 | 2.0 | 3.0 | 0.00 | 0.29 | 0.29 | 91 | 1014.0 |
| 20260831125244 | 70 | 170 | 3.0 | 3.0 | 0.07 | 0.29 | 0.29 | 91 | 1014.2 |
| 20260831124738 | 70 | 104 | 3.0 | 6.0 | 0.07 | 0.29 | 0.29 | 92 | 1014.3 |
| 20260831124235 | 70 | 86 | 3.0 | 6.0 | 0.00 | 0.28 | 0.28 | 92 | 1014.5 |
| 20260831123734 | 70 | 77 | 1.0 | 1.0 | 0.00 | 0.28 | 0.28 | 92 | 1014.2 |
| 20260831123233 | 70 | 187 | 5.0 | 8.0 | 0.00 | 0.28 | 0.28 | 92 | 1014.3 |
| 20260831122728 | 70 | 224 | 5.0 | 7.0 | 0.00 | 0.28 | 0.28 | 93 | 1014.3 |
| 20260831122224 | 70 | 87 | 0.0 | 0.0 | 0.00 | 0.28 | 0.28 | 94 | 1014.4 |
| 20260831121723 | 70 | 91 | 0.0 | 1.0 | 0.00 | 0.28 | 0.28 | 94 | 1014.0 |
| 20260831121220 | 70 | 87 | 1.0 | 1.0 | 0.00 | 0.28 | 0.28 | 94 | 1014.1 |
| 20260831120715 | 69 | 95 | 0.0 | 1.0 | 0.00 | 0.28 | 0.28 | 95 | 1014.2 |
| 20260831120209 | 69 | 78 | 1.0 | 1.0 | 0.00 | 0.28 | 0.28 | 95 | 1014.4 |
| 20260831115705 | 69 | 90 | 1.0 | 1.0 | 0.07 | 0.28 | 0.28 | 95 | 1014.6 |
| 20260831115201 | 69 | 165 | 3.0 | 5.0 | 0.12 | 0.28 | 0.28 | 95 | 1014.3 |
| 20260831114700 | 69 | 96 | 0.0 | 1.0 | 0.05 | 0.27 | 0.27 | 95 | 1014.4 |
| 20260831114159 | 69 | 110 | 0.0 | 0.0 | 0.12 | 0.26 | 0.26 | 95 | 1014.4 |
| 20260831113655 | 69 | 102 | 0.0 | 1.0 | 0.12 | 0.26 | 0.26 | 96 | 1014.5 |
| 20260831113150 | 69 | 100 | 2.0 | 2.0 | 0.00 | 0.24 | 0.24 | 96 | 1014.8 |
| 20260831112649 | 69 | 90 | 0.0 | 1.0 | 0.00 | 0.24 | 0.24 | 96 | 1014.3 |
| 20260831112144 | 69 | 102 | 1.0 | 1.0 | 0.00 | 0.24 | 0.24 | 96 | 1014.5 |
| 20260831111640 | 69 | 96 | 1.0 | 1.0 | 0.00 | 0.24 | 0.24 | 97 | 1014.3 |
| 20260831111136 | 69 | 170 | 1.0 | 2.0 | 0.00 | 0.24 | 0.24 | 97 | 1014.6 |
| 20260831110631 | 69 | 85 | 0.0 | 0.0 | 0.07 | 0.24 | 0.24 | 97 | 1014.5 |
| 20260831110126 | 69 | 103 | 1.0 | 1.0 | 0.19 | 0.24 | 0.24 | 97 | 1014.5 |
| 20260831105625 | 69 | 93 | 1.0 | 2.0 | 0.24 | 0.23 | 0.23 | 97 | 1014.7 |
| 20260831105120 | 69 | 132 | 0.0 | 1.0 | 0.12 | 0.21 | 0.21 | 97 | 1014.7 |
| 20260831104616 | 69 | 88 | 0.0 | 0.0 | 0.05 | 0.19 | 0.19 | 97 | 1014.9 |
| 20260831104112 | 69 | 136 | 1.0 | 1.0 | 0.00 | 0.18 | 0.18 | 97 | 1015.1 |
| 20260831103607 | 70 | 113 | 1.0 | 1.0 | 0.00 | 0.18 | 0.18 | 96 | 1015.2 |
| 20260831103103 | 70 | 73 | 0.0 | 0.0 | 0.19 | 0.18 | 0.18 | 96 | 1015.3 |
| 20260831102603 | 70 | 44 | 1.0 | 1.0 | 0.19 | 0.18 | 0.18 | 96 | 1015.4 |
| 20260831102058 | 70 | 78 | 0.0 | 0.0 | 0.19 | 0.15 | 0.15 | 95 | 1015.9 |
| 20260831101557 | 70 | 93 | 0.0 | 0.0 | 0.47 | 0.15 | 0.15 | 95 | 1015.4 |
| 20260831101054 | 70 | 39 | 1.0 | 1.0 | 0.61 | 0.13 | 0.13 | 94 | 1015.9 |
| 20260831100549 | 70 | 92 | 1.0 | 1.0 | 0.42 | 0.07 | 0.07 | 94 | 1015.3 |
| 20260831100045 | 71 | 105 | 0.0 | 0.0 | 0.17 | 0.03 | 0.03 | 93 | 1015.3 |
| 20260831095543 | 71 | 101 | 0.0 | 0.0 | 0.00 | 0.00 | 0.00 | 92 | 1015.3 |
| 20260831095039 | 71 | 50 | 0.0 | 0.0 | 0.00 | 0.00 | 0.00 | 91 | 1014.9 |
| 20260831094535 | 71 | 67 | 0.0 | 0.0 | 0.00 | 0.00 | 0.00 | 91 | 1014.5 |
| 20260831094030 | 70 | 80 | 0.0 | 0.0 | 0.00 | 0.00 | 0.00 | 92 | 1014.4 |
| 20260831093525 | 70 | 82 | 0.0 | 0.0 | 0.00 | 0.00 | 0.00 | 92 | 1014.3 |
| 20260831093022 | 70 | 77 | 0.0 | 1.0 | 0.00 | 0.00 | 0.00 | 92 | 1014.5 |
| 20260831092517 | 70 | 84 | 0.0 | 0.0 | 0.00 | 0.00 | 0.00 | 93 | 1014.4 |
| 20260831092013 | 70 | 81 | 0.0 | 0.0 | 0.00 | 0.00 | 0.00 | 93 | 1014.5 |
| 20260831091507 | 70 | 82 | 0.0 | 0.0 | 0.00 | 0.00 | 0.00 | 93 | 1014.5 |
| 20260831091003 | 70 | 86 | 0.0 | 0.0 | 0.00 | 0.00 | 0.00 | 94 | 1014.6 |
| 20260831090458 | 70 | 82 | 0.0 | 0.0 | 0.00 | 0.00 | 0.00 | 94 | 1014.7 |
| 20260831085954 | 70 | 70 | 0.0 | 0.0 | 0.00 | 0.00 | 0.00 | 94 | 1014.9 |
| 20260831085449 | 69 | 77 | 0.0 | 1.0 | 0.00 | 0.00 | 0.00 | 94 | 1014.7 |
| 20260831084949 | 70 | 78 | 0.0 | 0.0 | 0.00 | 0.00 | 0.00 | 94 | 1014.8 |
| 20260831084445 | 70 | 76 | 0.0 | 0.0 | 0.00 | 0.00 | 0.00 | 94 | 1014.8 |
| 20260831083942 | 70 | 81 | 0.0 | 0.0 | 0.00 | 0.00 | 0.00 | 93 | 1014.7 |
| 20260831083436 | 70 | 82 | 0.0 | 0.0 | 0.00 | 0.00 | 0.00 | 94 | 1014.3 |
| 20260831082935 | 70 | 90 | 1.0 | 1.0 | 0.00 | 0.00 | 0.00 | 94 | 1014.4 |
| 20260831082430 | 70 | 82 | 0.0 | 0.0 | 0.00 | 0.00 | 0.00 | 94 | 1014.6 |
| 20260831081925 | 70 | 83 | 0.0 | 0.0 | 0.00 | 0.00 | 0.00 | 94 | 1014.6 |
| 20260831081421 | 69 | 78 | 0.0 | 0.0 | 0.00 | 0.00 | 0.00 | 95 | 1014.7 |
| 20260831080917 | 69 | 82 | 0.0 | 0.0 | 0.00 | 0.00 | 0.00 | 95 | 1014.5 |
| 20260831080412 | 69 | 79 | 0.0 | 0.0 | 0.00 | 0.00 | 0.00 | 95 | 1014.6 |
| 20260831075907 | 69 | 80 | 0.0 | 0.0 | 0.00 | 0.00 | 0.00 | 95 | 1014.9 |
| 20260831075402 | 69 | 81 | 0.0 | 0.0 | 0.00 | 0.00 | 0.00 | 95 | 1014.9 |
| 20260831074857 | 69 | 80 | 0.0 | 0.0 | 0.00 | 0.00 | 0.00 | 95 | 1014.9 |
| 20260831074356 | 69 | 77 | 0.0 | 0.0 | 0.00 | 0.00 | 0.00 | 95 | 1015.0 |
| 20260831073852 | 69 | 74 | 0.0 | 0.0 | 0.00 | 0.00 | 0.00 | 95 | 1015.2 |
| 20260831073351 | 70 | 77 | 0.0 | 0.0 | 0.00 | 0.00 | 0.00 | 95 | 1015.2 |
| 20260831072846 | 70 | 82 | 1.0 | 1.0 | 0.00 | 0.00 | 0.00 | 95 | 1015.2 |
| 20260831072342 | 70 | 78 | 0.0 | 0.0 | 0.00 | 0.00 | 0.00 | 95 | 1015.2 |
| 20260831071838 | 70 | 77 | 0.0 | 0.0 | 0.00 | 0.00 | 0.00 | 95 | 1015.7 |
| 20260831071336 | 70 | 77 | 0.0 | 0.0 | 0.00 | 0.00 | 0.00 | 95 | 1015.6 |
| 20260831070832 | 70 | 75 | 0.0 | 0.0 | 0.00 | 0.00 | 0.00 | 95 | 1015.9 |
| 20260831070331 | 71 | 76 | 0.0 | 0.0 | 0.00 | 0.00 | 0.00 | 94 | 1015.8 |
| 20260831065830 | 71 | 74 | 0.0 | 0.0 | 0.00 | 0.00 | 0.00 | 95 | 1015.7 |
| 20260831065328 | 71 | 70 | 0.0 | 0.0 | 0.00 | 0.00 | 0.00 | 95 | 1015.9 |
| 20260831064823 | 71 | 68 | 0.0 | 0.0 | 0.00 | 0.00 | 0.00 | 95 | 1015.9 |
| 20260831064319 | 71 | 69 | 0.0 | 0.0 | 0.00 | 0.00 | 0.00 | 95 | 1015.9 |
| 20260831063815 | 71 | 69 | 0.0 | 0.0 | 0.00 | 0.00 | 0.00 | 95 | 1015.9 |
| 20260831063309 | 71 | 69 | 0.0 | 0.0 | 0.00 | 0.00 | 0.00 | 95 | 1016.0 |
| 20260831062809 | 71 | 69 | 0.0 | 0.0 | 0.00 | 0.00 | 0.00 | 95 | 1016.1 |
| 20260831062306 | 71 | 53 | 1.0 | 1.0 | 0.00 | 0.00 | 0.00 | 94 | 1015.9 |
| 20260831061803 | 71 | 75 | 0.0 | 0.0 | 0.00 | 0.00 | 0.00 | 94 | 1015.9 |
| 20260831061257 | 71 | 76 | 0.0 | 0.0 | 0.00 | 0.00 | 0.00 | 94 | 1015.8 |
| 20260831060754 | 71 | 81 | 0.0 | 0.0 | 0.00 | 0.00 | 0.00 | 94 | 1016.0 |
| 20260831060253 | 71 | 77 | 0.0 | 0.0 | 0.00 | 0.00 | 0.00 | 93 | 1015.8 |
| 20260831055753 | 71 | 77 | 0.0 | 0.0 | 0.00 | 0.00 | 0.00 | 93 | 1016.0 |
| 20260831055248 | 71 | 76 | 0.0 | 0.0 | 0.00 | 0.00 | 0.00 | 93 | 1016.0 |
| 20260831054742 | 71 | 73 | 0.0 | 0.0 | 0.00 | 0.00 | 0.00 | 93 | 1016.0 |
| 20260831054232 | 71 | 69 | 0.0 | 0.0 | 0.00 | 0.00 | 0.00 | 93 | 1015.9 |
| 20260831053731 | 71 | 65 | 0.0 | 0.0 | 0.00 | 0.00 | 0.00 | 93 | 1015.9 |
| 20260831053230 | 72 | 65 | 0.0 | 0.0 | 0.00 | 0.00 | 0.00 | 92 | 1015.9 |
| 20260831052729 | 72 | 64 | 0.0 | 0.0 | 0.00 | 0.00 | 0.00 | 92 | 1015.8 |
| 20260831052223 | 72 | 75 | 0.0 | 0.0 | 0.00 | 0.00 | 0.00 | 91 | 1015.8 |
| 20260831051722 | 72 | 67 | 0.0 | 0.0 | 0.00 | 0.00 | 0.00 | 91 | 1015.8 |
| 20260831051220 | 72 | 68 | 0.0 | 0.0 | 0.00 | 0.00 | 0.00 | 91 | 1015.7 |
| 20260831050715 | 72 | 68 | 0.0 | 0.0 | 0.00 | 0.00 | 0.00 | 90 | 1015.7 |
| 20260831050214 | 72 | 54 | 1.0 | 1.0 | 0.00 | 0.00 | 0.00 | 90 | 1015.8 |
| 20260831045709 | 72 | 29 | 3.0 | 3.0 | 0.00 | 0.45 | 0.45 | 91 | 1015.9 |
| 20260831045204 | 72 | 77 | 0.0 | 0.0 | 0.00 | 0.45 | 0.45 | 91 | 1016.1 |
| 20260831044659 | 72 | 76 | 0.0 | 0.0 | 0.00 | 0.45 | 0.45 | 91 | 1015.9 |
| 20260831044154 | 72 | 79 | 0.0 | 0.0 | 0.00 | 0.45 | 0.45 | 90 | 1015.9 |
| 20260831043649 | 72 | 72 | 0.0 | 0.0 | 0.00 | 0.45 | 0.45 | 90 | 1015.9 |
| 20260831043145 | 72 | 71 | 1.0 | 1.0 | 0.00 | 0.45 | 0.45 | 90 | 1015.4 |
| 20260831042643 | 72 | 238 | 1.0 | 2.0 | 0.00 | 0.45 | 0.45 | 90 | 1015.6 |
| 20260831042138 | 72 | 95 | 1.0 | 1.0 | 0.00 | 0.45 | 0.45 | 90 | 1015.2 |
| 20260831041632 | 72 | 86 | 0.0 | 0.0 | 0.00 | 0.45 | 0.45 | 90 | 1015.3 |
| 20260831041127 | 72 | 81 | 0.0 | 1.0 | 0.00 | 0.45 | 0.45 | 90 | 1015.3 |
| 20260831040622 | 72 | 40 | 1.0 | 1.0 | 0.00 | 0.45 | 0.45 | 90 | 1015.2 |
| 20260831040121 | 73 | 225 | 3.0 | 3.0 | 0.00 | 0.45 | 0.45 | 89 | 1015.2 |
| 20260831035620 | 73 | 112 | 1.0 | 1.0 | 0.00 | 0.45 | 0.45 | 89 | 1014.9 |
| 20260831035114 | 72 | 146 | 2.0 | 2.0 | 0.00 | 0.45 | 0.45 | 90 | 1014.9 |
| 20260831034614 | 72 | 98 | 1.0 | 2.0 | 0.00 | 0.45 | 0.45 | 90 | 1015.0 |
| 20260831034109 | 72 | 94 | 1.0 | 1.0 | 0.00 | 0.45 | 0.45 | 90 | 1015.0 |
| 20260831033605 | 72 | 43 | 1.0 | 1.0 | 0.00 | 0.45 | 0.45 | 90 | 1014.8 |
| 20260831033100 | 72 | 132 | 4.0 | 6.0 | 0.00 | 0.45 | 0.45 | 90 | 1014.6 |
| 20260831032559 | 72 | 80 | 0.0 | 1.0 | 0.00 | 0.45 | 0.45 | 90 | 1014.9 |
| 20260831032055 | 72 | 176 | 4.0 | 5.0 | 0.00 | 0.45 | 0.45 | 91 | 1015.1 |